Dodge City, KS

7:54 AM CDT on September 18, 2019 (GMT -0500)
Dodge City Regional

Weather History for KDDC - August, 2019

Change the Weather History Date:

Tuesday, August 20, 2019

  Actual Average Record
Temperature  
Mean Temperature 90 °F -  
Max Temperature 104 °F 91 °F 105 °F (1902)
Min Temperature 77 °F 66 °F 47 °F (1950)
Cooling Degree Days 26    
Growing Degree Days 40 (Base 50)    
Moisture  
Dew Point 60 °F    
Average Humidity 38    
Maximum Humidity 62    
Minimum Humidity 18    
Precipitation  
Precipitation 0.00 in - - ()
Sea Level Pressure  
Sea Level Pressure 29.89 in    
Wind  
Wind Speed 15 mph (South)    
Max Wind Speed 26 mph    
Max Gust Speed 40 mph    
Visibility 9 miles    
Events      
Averages and records for this station are not official NWS values.
T = Trace of Precipitation, MM = Missing Value Source: NWS Daily Summary

Daily Weather History Graph

Daily Weather History Graph

Search for Another Location

Airport or City:

Astronomy

Aug. 20, 2019 Rise Set
Actual Time 6:59 AM CDT 8:26 PM CDT
Civil Twilight 6:31 AM CDT 8:53 PM CDT
Nautical Twilight 5:58 AM CDT 9:26 PM CDT
Astronomical Twilight 5:23 AM CDT 10:01 PM CDT
Moon 11:20 PM CDT (8/20) 11:34 AM CDT (8/20)
Length of Visible Light 14h 21m
Length of Day
13h 26m
Waning Gibbous, 77% of the Moon is Illuminated
Aug 20
Waning Gibbous
Aug 23
Last Quarter
Aug 30
New
Sep 5
First Quarter
Sep 13
Full

Hourly Weather History & Observations

Time (CDT) Temp. Heat Index Dew Point Humidity Pressure Visibility Wind Dir Wind Speed Gust Speed Precip Events Conditions
12:52 AM 84.0 °F 85.8 °F 64.9 °F 53% 29.85 in 9.0 mi South 12.7 mph - N/A   Clear
1:52 AM 86.0 °F 87.3 °F 64.0 °F 48% 29.85 in 10.0 mi South 16.1 mph 26.5 mph N/A   Clear
2:52 AM 84.0 °F 84.9 °F 63.0 °F 49% 29.86 in 10.0 mi South 15.0 mph 25.3 mph N/A   Clear
3:52 AM 82.9 °F 84.0 °F 63.0 °F 51% 29.86 in 10.0 mi South 16.1 mph 25.3 mph N/A   Clear
4:52 AM 81.0 °F 82.5 °F 64.0 °F 56% 29.86 in 10.0 mi South 12.7 mph - N/A   Clear
5:52 AM 79.0 °F - 64.0 °F 60% 29.87 in 10.0 mi South 11.5 mph - N/A   Clear
7:52 AM 78.1 °F - 64.0 °F 62% 29.90 in 8.0 mi South 12.7 mph - N/A   Clear
8:52 AM 82.0 °F 83.8 °F 64.9 °F 56% 29.90 in 7.0 mi SSW 15.0 mph - N/A   Clear
9:52 AM 88.0 °F 89.3 °F 64.0 °F 45% 29.91 in 8.0 mi SSW 21.9 mph 29.9 mph N/A   Clear
10:50 AM 91.4 °F 93.2 °F 64.4 °F 41% 30.02 in 7.0 mi SW 18.4 mph - N/A   Partly Cloudy
10:52 AM 91.9 °F 93.3 °F 64.0 °F 39% 29.91 in 7.0 mi SSW 18.4 mph - N/A   Partly Cloudy
11:52 AM 93.9 °F 94.0 °F 61.0 °F 33% 29.90 in 7.0 mi SW 16.1 mph 25.3 mph N/A   Clear
12:52 PM 96.1 °F 96.0 °F 60.1 °F 30% 29.88 in 8.0 mi SW 16.1 mph 27.6 mph N/A   Clear
1:52 PM 96.1 °F 96.9 °F 62.1 °F 32% 29.88 in 8.0 mi SSW 13.8 mph - N/A   Clear
2:27 PM 100.0 °F 100.2 °F 59.0 °F 26% 30.00 in 4.0 mi SW 16.1 mph 28.8 mph N/A   Haze
2:52 PM 102.0 °F 102.7 °F 60.1 °F 25% 29.87 in 10.0 mi SSW 18.4 mph 27.6 mph N/A   Clear
3:52 PM 104.0 °F 103.4 °F 57.0 °F 21% 29.83 in 8.0 mi SSW 16.1 mph 27.6 mph N/A   Clear
4:52 PM 104.0 °F 101.8 °F 53.1 °F 18% 29.82 in 10.0 mi SSW 16.1 mph 26.5 mph N/A   Clear
5:52 PM 102.9 °F 100.9 °F 53.1 °F 19% 29.82 in 10.0 mi SSW 18.4 mph - N/A   Clear
6:22 PM 93.0 °F 92.3 °F 59.0 °F 32% 29.96 in 9.0 mi SE 19.6 mph - N/A   Clear
6:52 PM 86.0 °F 86.1 °F 61.0 °F 43% 29.88 in 10.0 mi SE 21.9 mph 28.8 mph N/A   Partly Cloudy
7:52 PM 84.0 °F 82.6 °F 54.0 °F 35% 29.88 in 9.0 mi ESE 26.5 mph 40.3 mph N/A   Clear
8:52 PM 86.0 °F - 50.0 °F 29% 29.89 in 10.0 mi ESE 15.0 mph - N/A   Clear
9:52 PM 84.0 °F - 50.0 °F 31% 29.90 in 10.0 mi ESE 11.5 mph - N/A   Clear
10:52 PM 82.0 °F - 51.1 °F 34% 29.91 in 10.0 mi SSE 9.2 mph - N/A   Clear
11:52 PM 82.0 °F 81.2 °F 53.1 °F 37% 29.92 in 10.0 mi East 5.8 mph - N/A   Clear